SHT21B EGJB-EGLL

Flight info

Callsign SHT21B
Flight time 0h 35m
Altitude 23000
Route ORIST L982 ROXOG
Aircraft A319/M-SDE3FGHIRWY/LB1

Departure

Time 2026-04-20 15:57
Airport Guernsey Airport (EGJB)

Arrival

Time 2026-04-20 16:33
Airport London Heathrow Airport (EGLL)
Time Latitude Longitude Altitude Speed Heading
2026-04-20 15:43 49.43255 -2.59684 328 ft 0 kts 178°
2026-04-20 15:47 49.43274 -2.59686 326 ft 4 kts 174°
2026-04-20 15:47 49.43301 -2.59691 328 ft 4 kts 176°
2026-04-20 15:47 49.43326 -2.59687 325 ft 3 kts 205°
2026-04-20 15:48 49.43348 -2.59668 329 ft 4 kts 228°
2026-04-20 15:48 49.43360 -2.59633 325 ft 4 kts 262°
2026-04-20 15:48 49.43361 -2.59618 330 ft 0 kts 267°
2026-04-20 15:51 49.43360 -2.59657 329 ft 8 kts 267°
2026-04-20 15:51 49.43350 -2.59777 325 ft 14 kts 260°
2026-04-20 15:51 49.43341 -2.59979 316 ft 23 kts 267°
2026-04-20 15:51 49.43336 -2.60201 300 ft 21 kts 268°
2026-04-20 15:52 49.43328 -2.60453 296 ft 23 kts 268°
2026-04-20 15:52 49.43329 -2.60627 295 ft 15 kts 279°
2026-04-20 15:52 49.43348 -2.60787 300 ft 15 kts 280°
2026-04-20 15:53 49.43363 -2.61025 311 ft 10 kts 268°
2026-04-20 15:53 49.43360 -2.61147 312 ft 12 kts 267°
2026-04-20 15:53 49.43358 -2.61215 313 ft 0 kts 271°
2026-04-20 15:54 49.43359 -2.61235 313 ft 4 kts 278°
2026-04-20 15:54 49.43379 -2.61290 314 ft 8 kts 308°
2026-04-20 15:55 49.43422 -2.61351 316 ft 9 kts 330°
2026-04-20 15:55 49.43467 -2.61308 314 ft 10 kts 86°
2026-04-20 15:55 49.43467 -2.61273 313 ft 0 kts 89°
2026-04-20 15:56 49.43468 -2.61269 315 ft 4 kts 89°
2026-04-20 15:56 49.43481 -2.60791 310 ft 87 kts 87°
2026-04-20 15:57 49.43518 -2.59521 531 ft 133 kts 85°
2026-04-20 15:57 49.43552 -2.58116 1391 ft 131 kts 84°
2026-04-20 15:57 49.43592 -2.56668 2102 ft 143 kts 84°
2026-04-20 15:57 49.43640 -2.55031 2518 ft 163 kts 85°
2026-04-20 15:58 49.43692 -2.53175 2957 ft 185 kts 86°
2026-04-20 15:58 49.43799 -2.51109 3372 ft 202 kts 76°
2026-04-20 15:58 49.44516 -2.49262 4372 ft 207 kts 44°
2026-04-20 15:58 49.45828 -2.48263 5313 ft 219 kts 17°
2026-04-20 15:59 49.47322 -2.47693 6266 ft 224 kts 14°
2026-04-20 15:59 49.48878 -2.47119 7010 ft 240 kts 14°
2026-04-20 15:59 49.50588 -2.46483 7573 ft 264 kts 14°
2026-04-20 15:59 49.52411 -2.45797 8420 ft 275 kts 14°
2026-04-20 16:00 49.54289 -2.45089 9397 ft 281 kts 13°
2026-04-20 16:00 49.56203 -2.44361 10382 ft 285 kts 13°
2026-04-20 16:00 49.58141 -2.43620 11308 ft 289 kts 12°
2026-04-20 16:00 49.60101 -2.42869 12257 ft 292 kts 11°
2026-04-20 16:01 49.62082 -2.42112 13216 ft 294 kts 10°
2026-04-20 16:01 49.64081 -2.41347 14136 ft 298 kts 10°
2026-04-20 16:01 49.66106 -2.40574 14917 ft 303 kts 10°
2026-04-20 16:01 49.68155 -2.39745 15739 ft 307 kts 15°
2026-04-20 16:02 49.70106 -2.38313 16526 ft 316 kts 29°
2026-04-20 16:02 49.71872 -2.36106 16838 ft 341 kts 44°
2026-04-20 16:02 49.73468 -2.33227 17127 ft 361 kts 47°
2026-04-20 16:02 49.75101 -2.30226 17753 ft 368 kts 46°
2026-04-20 16:03 49.76762 -2.27170 18464 ft 373 kts 46°
2026-04-20 16:03 49.78448 -2.24080 19091 ft 378 kts 46°
2026-04-20 16:03 49.80156 -2.20960 19699 ft 383 kts 45°
2026-04-20 16:03 49.81891 -2.17796 20303 ft 388 kts 45°
2026-04-20 16:04 49.83649 -2.14589 20899 ft 393 kts 45°
2026-04-20 16:04 49.85430 -2.11344 21498 ft 398 kts 44°
2026-04-20 16:04 49.87234 -2.08053 22086 ft 403 kts 44°
2026-04-20 16:04 49.89059 -2.04714 22668 ft 408 kts 44°
2026-04-20 16:05 49.90900 -2.01333 23117 ft 413 kts 44°
2026-04-20 16:05 49.92746 -1.97930 23220 ft 407 kts 44°
2026-04-20 16:05 49.94544 -1.94595 23231 ft 400 kts 44°
2026-04-20 16:05 49.96326 -1.91293 23252 ft 399 kts 44°
2026-04-20 16:06 49.98114 -1.88000 23240 ft 398 kts 42°
2026-04-20 16:06 50.00084 -1.85053 23242 ft 389 kts 32°
2026-04-20 16:06 50.02303 -1.82720 23245 ft 382 kts 22°
2026-04-20 16:06 50.04650 -1.80848 23245 ft 379 kts 19°
2026-04-20 16:07 50.06999 -1.78994 23242 ft 378 kts 19°
2026-04-20 16:07 50.09342 -1.77134 23242 ft 378 kts 19°
2026-04-20 16:07 50.11681 -1.75229 23239 ft 381 kts 23°
2026-04-20 16:07 50.13864 -1.72822 23240 ft 388 kts 32°
2026-04-20 16:08 50.15963 -1.70160 23239 ft 389 kts 32°
2026-04-20 16:08 50.18049 -1.67464 23238 ft 390 kts 33°
2026-04-20 16:08 50.20128 -1.64749 23263 ft 389 kts 33°
2026-04-20 16:08 50.22197 -1.62026 23262 ft 389 kts 33°
2026-04-20 16:09 50.24268 -1.59304 23262 ft 389 kts 32°
2026-04-20 16:09 50.26450 -1.56896 23259 ft 380 kts 22°
2026-04-20 16:09 50.28779 -1.55189 23258 ft 371 kts 12°
2026-04-20 16:09 50.31221 -1.53978 23256 ft 368 kts
2026-04-20 16:10 50.33697 -1.52780 23253 ft 368 kts
2026-04-20 16:10 50.36141 -1.51588 23252 ft 368 kts
2026-04-20 16:10 50.38582 -1.50393 23251 ft 368 kts
2026-04-20 16:10 50.41024 -1.49190 23251 ft 368 kts
2026-04-20 16:11 50.43434 -1.47998 23277 ft 368 kts 10°
2026-04-20 16:11 50.45880 -1.46791 23272 ft 368 kts 10°
2026-04-20 16:11 50.48325 -1.45585 23266 ft 368 kts 10°
2026-04-20 16:11 50.50801 -1.44362 23263 ft 368 kts 10°
2026-04-20 16:12 50.53207 -1.43140 23255 ft 371 kts 13°
2026-04-20 16:12 50.55565 -1.41387 23076 ft 378 kts 21°
2026-04-20 16:12 50.57867 -1.39423 22703 ft 375 kts 21°
2026-04-20 16:12 50.60145 -1.37459 22243 ft 372 kts 21°
2026-04-20 16:13 50.62404 -1.35504 21775 ft 369 kts 21°
2026-04-20 16:13 50.64642 -1.33571 21335 ft 365 kts 21°
2026-04-20 16:13 50.66863 -1.31658 20843 ft 362 kts 21°
2026-04-20 16:13 50.69059 -1.29771 20375 ft 357 kts 22°
2026-04-20 16:14 50.71231 -1.27902 19907 ft 354 kts 22°
2026-04-20 16:14 50.73385 -1.26043 19448 ft 351 kts 22°
2026-04-20 16:14 50.74827 -1.24798 19137 ft 349 kts 22°
2026-04-20 16:14 50.76944 -1.22934 18681 ft 347 kts 25°
2026-04-20 16:15 50.78998 -1.20947 18188 ft 346 kts 27°
2026-04-20 16:15 50.81004 -1.18873 17728 ft 344 kts 28°
2026-04-20 16:15 50.82984 -1.16769 17275 ft 342 kts 29°
2026-04-20 16:15 50.84952 -1.14670 16824 ft 340 kts 29°
2026-04-20 16:16 50.86912 -1.12597 16369 ft 338 kts 29°
2026-04-20 16:16 50.88866 -1.10549 15926 ft 336 kts 29°
2026-04-20 16:16 50.90810 -1.08528 15483 ft 333 kts 29°
2026-04-20 16:16 50.92746 -1.06522 15042 ft 332 kts 30°
2026-04-20 16:17 50.94649 -1.04554 14599 ft 330 kts 30°
2026-04-20 16:17 50.96567 -1.02566 14163 ft 329 kts 30°
2026-04-20 16:17 50.98501 -1.00559 13688 ft 327 kts 30°
2026-04-20 16:17 51.00365 -0.98511 13242 ft 326 kts 37°
2026-04-20 16:18 51.01950 -0.95943 12894 ft 325 kts 46°
2026-04-20 16:18 51.03445 -0.93268 12598 ft 321 kts 46°
2026-04-20 16:18 51.04901 -0.90670 12464 ft 308 kts 46°
2026-04-20 16:18 51.06301 -0.88175 12334 ft 297 kts 45°
2026-04-20 16:19 51.07650 -0.85771 12195 ft 287 kts 45°
2026-04-20 16:19 51.08968 -0.83422 11872 ft 284 kts 45°
2026-04-20 16:19 51.10303 -0.81046 11038 ft 291 kts 45°
2026-04-20 16:19 51.11667 -0.78618 10244 ft 299 kts 46°
2026-04-20 16:20 51.13067 -0.76117 9496 ft 304 kts 47°
2026-04-20 16:20 51.14449 -0.73648 9293 ft 291 kts 46°
2026-04-20 16:20 51.15762 -0.71292 9264 ft 276 kts 46°
2026-04-20 16:20 51.17009 -0.69047 9268 ft 268 kts 46°
2026-04-20 16:21 51.18234 -0.66842 9271 ft 265 kts 47°
2026-04-20 16:21 51.19456 -0.64649 9182 ft 265 kts 47°
2026-04-20 16:21 51.20679 -0.62456 8911 ft 264 kts 47°
2026-04-20 16:21 51.21899 -0.60274 8591 ft 262 kts 47°
2026-04-20 16:22 51.23092 -0.58125 8369 ft 251 kts 47°
2026-04-20 16:22 51.24210 -0.56102 8161 ft 237 kts 47°
2026-04-20 16:22 51.25295 -0.54143 7753 ft 234 kts 47°
2026-04-20 16:22 51.26369 -0.52206 7540 ft 232 kts 48°
2026-04-20 16:23 51.27606 -0.50574 7429 ft 231 kts 26°
2026-04-20 16:23 51.29153 -0.50005 7323 ft 230 kts
2026-04-20 16:23 51.30696 -0.50635 7264 ft 233 kts 333°
2026-04-20 16:23 51.31927 -0.52362 7270 ft 241 kts 307°
2026-04-20 16:24 51.32601 -0.54826 7265 ft 244 kts 291°
2026-04-20 16:24 51.33131 -0.57412 7272 ft 246 kts 291°
2026-04-20 16:24 51.33658 -0.60004 7267 ft 245 kts 290°
2026-04-20 16:24 51.34185 -0.62595 7264 ft 245 kts 291°
2026-04-20 16:25 51.34712 -0.65179 7266 ft 244 kts 289°
2026-04-20 16:25 51.35231 -0.67778 6994 ft 246 kts 290°
2026-04-20 16:25 51.35739 -0.70379 6727 ft 244 kts 288°
2026-04-20 16:25 51.36243 -0.72988 6298 ft 250 kts 290°
2026-04-20 16:26 51.36788 -0.75627 5938 ft 248 kts 297°
2026-04-20 16:26 51.37843 -0.77736 5508 ft 241 kts 328°
2026-04-20 16:26 51.39342 -0.78673 5112 ft 226 kts 357°
2026-04-20 16:26 51.40868 -0.78771 4765 ft 214 kts
2026-04-20 16:27 51.42328 -0.78851 4433 ft 206 kts
2026-04-20 16:27 51.43729 -0.78926 4126 ft 199 kts
2026-04-20 16:27 51.45105 -0.78993 3848 ft 197 kts
2026-04-20 16:27 51.46374 -0.78465 3637 ft 184 kts 34°
2026-04-20 16:28 51.47219 -0.77100 3629 ft 170 kts 58°
2026-04-20 16:28 51.47601 -0.75297 3421 ft 174 kts 82°
2026-04-20 16:28 51.47620 -0.73355 3199 ft 175 kts 88°
2026-04-20 16:28 51.47631 -0.71401 2970 ft 175 kts 88°
2026-04-20 16:29 51.47643 -0.69456 2727 ft 172 kts 88°
2026-04-20 16:29 51.47654 -0.67578 2490 ft 163 kts 88°
2026-04-20 16:29 51.47664 -0.65813 2280 ft 156 kts 88°
2026-04-20 16:29 51.47673 -0.64091 2073 ft 155 kts 88°
2026-04-20 16:30 51.47683 -0.62372 1869 ft 154 kts 88°
2026-04-20 16:30 51.47692 -0.60663 1651 ft 153 kts 87°
2026-04-20 16:30 51.47700 -0.58980 1437 ft 151 kts 88°
2026-04-20 16:30 51.47708 -0.57369 1240 ft 137 kts 86°
2026-04-20 16:31 51.47715 -0.55896 1046 ft 130 kts 88°
2026-04-20 16:31 51.47722 -0.54434 872 ft 132 kts 87°
2026-04-20 16:31 51.47728 -0.52952 688 ft 132 kts 87°
2026-04-20 16:31 51.47739 -0.51466 438 ft 133 kts 86°
2026-04-20 16:32 51.47751 -0.49982 305 ft 132 kts 87°
2026-04-20 16:32 51.47751 -0.48530 151 ft 131 kts 86°
2026-04-20 16:32 51.47756 -0.47126 89 ft 111 kts 90°
2026-04-20 16:32 51.47759 -0.46167 89 ft 50 kts 89°
2026-04-20 16:33 51.47759 -0.45683 86 ft 31 kts 90°
2026-04-20 16:33 51.47707 -0.45472 85 ft 19 kts 166°